• In Deutschland
  • Länderverzeichnis
  • Für 7 Tage
  • Wassertemperatur
  • Satellitenkarten
  • Wetterkarte
  • Widgets
  • user-avatar
    Anmelden

    Stündliche Wetter Kitzbühel

    Heute, 22 Januar, Montag

    Zeit Temperatur Niederschläge Wind Luftdruck Luftfeuchtigkeit
    00:00 -8°C° 0,1 mm 2 m/S 674 mmHg 89%
    01:00 -6°C° 0 mm 2 m/S 673 mmHg 86%
    02:00 -5°C° 0,8 mm 2 m/S 673 mmHg 89%
    03:00 -3°C° 0,8 mm 1 m/S 673 mmHg 92%
    04:00 -2°C° 0,8 mm 1 m/S 673 mmHg 95%
    05:00 -2°C° 1,8 mm 1 m/S 673 mmHg 95%
    06:00 -1°C° 1,8 mm 1 m/S 672 mmHg 96%
    07:00 -1°C° 1,8 mm 1 m/S 672 mmHg 96%
    08:00 -2°C° 1,5 mm 2 m/S 672 mmHg 96%
    09:00 -1°C° 1,5 mm 2 m/S 672 mmHg 95%
    10:00 +1°C° 1,5 mm 2 m/S 672 mmHg 95%
    11:00 +1°C° 1,6 mm 2 m/S 672 mmHg 96%
    12:00 +2°C° 1,6 mm 2 m/S 671 mmHg 97%
    13:00 +3°C° 0 mm 2 m/S 671 mmHg 97%
    14:00 +3°C° 1,6 mm 2 m/S 671 mmHg 97%
    15:00 +3°C° 1,6 mm 2 m/S 671 mmHg 98%
    16:00 +4°C° 1,6 mm 1 m/S 671 mmHg 98%
    17:00 +4°C° 2,6 mm 1 m/S 671 mmHg 98%
    18:00 +4°C° 2,6 mm 1 m/S 671 mmHg 98%
    19:00 +4°C° 2,6 mm 1 m/S 671 mmHg 98%
    20:00 +4°C° 2,3 mm 1 m/S 672 mmHg 98%
    21:00 +4°C° 2,3 mm 1 m/S 672 mmHg 98%
    22:00 +3°C° 2,3 mm 2 m/S 673 mmHg 98%
    23:00 +3°C° 1 mm 2 m/S 674 mmHg 98%

    Morgen, 23 Januar, Dienstag

    Zeit Temperatur Niederschläge Wind Luftdruck Luftfeuchtigkeit
    00:00 +2°C° 1 mm 2 m/S 674 mmHg 98%
    01:00 +2°C° 1 mm 2 m/S 675 mmHg 98%
    02:00 +2°C° 0,5 mm 2 m/S 676 mmHg 97%
    03:00 +2°C° 0,5 mm 2 m/S 676 mmHg 97%
    04:00 +1°C° 0,5 mm 2 m/S 677 mmHg 97%
    05:00 +1°C° 0,8 mm 2 m/S 677 mmHg 97%
    06:00 +1°C° 0,8 mm 2 m/S 678 mmHg 96%
    07:00 +1°C° 0,8 mm 2 m/S 678 mmHg 96%
    08:00 +1°C° 0,7 mm 2 m/S 679 mmHg 96%
    09:00 +1°C° 0,7 mm 2 m/S 679 mmHg 96%
    10:00 +1°C° 0,7 mm 2 m/S 680 mmHg 96%
    11:00 +2°C° 0,2 mm 2 m/S 680 mmHg 95%
    12:00 +2°C° 0,2 mm 2 m/S 681 mmHg 94%
    13:00 +3°C° 0,2 mm 2 m/S 681 mmHg 93%
    14:00 +2°C° 0 mm 2 m/S 681 mmHg 94%
    15:00 +3°C° 0 mm 1 m/S 681 mmHg 94%
    16:00 +3°C° 0 mm 1 m/S 681 mmHg 94%
    17:00 +1°C° 0 mm 1 m/S 681 mmHg 90%
    18:00 0°C° 0 mm 1 m/S 681 mmHg 85%
    19:00 -3°C° 0 mm 2 m/S 681 mmHg 81%
    20:00 -3°C° 0 mm 2 m/S 682 mmHg 78%
    21:00 -3°C° 0 mm 2 m/S 682 mmHg 74%
    22:00 -3°C° 0 mm 2 m/S 682 mmHg 70%
    23:00 -3°C° 0 mm 2 m/S 682 mmHg 69%

    übermorgen, 24 Januar, Mittwoch

    Zeit Temperatur Niederschläge Wind Luftdruck Luftfeuchtigkeit
    00:00 -3°C° 0 mm 2 m/S 682 mmHg 68%
    01:00 -3°C° 0 mm 2 m/S 682 mmHg 67%
    02:00 -2°C° 0,1 mm 2 m/S 683 mmHg 69%
    03:00 -1°C° 0,1 mm 2 m/S 683 mmHg 71%
    04:00 +2°C° 0,1 mm 2 m/S 683 mmHg 73%
    05:00 +2°C° 0 mm 2 m/S 683 mmHg 74%
    06:00 +2°C° 0 mm 2 m/S 683 mmHg 75%
    07:00 +2°C° 0 mm 2 m/S 683 mmHg 76%
    08:00 +3°C° 0 mm 1 m/S 683 mmHg 80%
    09:00 +4°C° 0 mm 1 m/S 683 mmHg 84%
    10:00 +5°C° 0 mm 1 m/S 683 mmHg 88%
    11:00 +6°C° 0 mm 1 m/S 683 mmHg 91%
    12:00 +6°C° 0 mm 1 m/S 682 mmHg 93%
    13:00 +7°C° 0 mm 1 m/S 682 mmHg 95%
    14:00 +5°C° 0 mm 2 m/S 682 mmHg 95%
    15:00 +5°C° 0 mm 2 m/S 681 mmHg 95%
    16:00 +4°C° 0 mm 2 m/S 681 mmHg 95%
    17:00 +3°C° 0 mm 2 m/S 681 mmHg 91%
    18:00 +2°C° 0 mm 2 m/S 681 mmHg 87%
    19:00 +1°C° 0 mm 2 m/S 681 mmHg 83%
    20:00 +1°C° 0 mm 2 m/S 681 mmHg 81%
    21:00 +1°C° 0 mm 2 m/S 681 mmHg 80%
    22:00 +1°C° 0 mm 2 m/S 681 mmHg 78%
    23:00 +1°C° 0 mm 2 m/S 680 mmHg 77%

    25 Januar, Donnerstag

    Zeit Temperatur Niederschläge Wind Luftdruck Luftfeuchtigkeit
    00:00 -1°C° 0 mm 2 m/S 680 mmHg 76%
    01:00 -1°C° 0 mm 2 m/S 680 mmHg 75%
    02:00 -1°C° 0 mm 2 m/S 680 mmHg 74%
    03:00 -1°C° 0 mm 2 m/S 680 mmHg 74%
    04:00 -1°C° 0 mm 2 m/S 679 mmHg 73%
    05:00 +1°C° 0 mm 2 m/S 679 mmHg 73%
    06:00 +1°C° 0 mm 2 m/S 679 mmHg 73%
    07:00 +1°C° 0 mm 2 m/S 679 mmHg 72%
    08:00 +2°C° 0 mm 2 m/S 679 mmHg 75%
    09:00 +3°C° 0 mm 2 m/S 679 mmHg 77%
    10:00 +3°C° 0 mm 2 m/S 679 mmHg 79%
    11:00 +4°C° 0 mm 2 m/S 678 mmHg 82%
    12:00 +5°C° 0 mm 2 m/S 678 mmHg 85%
    13:00 +5°C° 0 mm 2 m/S 677 mmHg 88%
    14:00 +5°C° 0 mm 2 m/S 677 mmHg 89%
    15:00 +4°C° 0 mm 2 m/S 676 mmHg 90%
    16:00 +4°C° 0 mm 2 m/S 676 mmHg 91%
    17:00 +3°C° 0 mm 2 m/S 676 mmHg 90%
    18:00 +2°C° 0 mm 2 m/S 676 mmHg 89%
    19:00 +1°C° 0 mm 2 m/S 676 mmHg 87%
    20:00 +1°C° 0 mm 2 m/S 676 mmHg 87%
    21:00 +1°C° 0 mm 2 m/S 676 mmHg 87%
    22:00 -1°C° 0 mm 2 m/S 676 mmHg 87%
    23:00 -1°C° 0 mm 2 m/S 675 mmHg 87%

    26 Januar, Freitag

    Zeit Temperatur Niederschläge Wind Luftdruck Luftfeuchtigkeit
    00:00 -1°C° 0 mm 2 m/S 675 mmHg 87%
    01:00 -1°C° 0 mm 2 m/S 675 mmHg 87%
    02:00 -1°C° 0 mm 2 m/S 674 mmHg 87%
    03:00 -1°C° 0 mm 2 m/S 674 mmHg 87%
    04:00 -1°C° 0 mm 2 m/S 674 mmHg 87%
    05:00 -1°C° 0 mm 2 m/S 674 mmHg 87%
    06:00 -1°C° 0 mm 2 m/S 674 mmHg 87%
    07:00 -1°C° 0 mm 2 m/S 673 mmHg 87%
    08:00 +1°C° 0 mm 2 m/S 674 mmHg 88%
    09:00 +2°C° 0 mm 2 m/S 674 mmHg 88%
    10:00 +3°C° 0 mm 2 m/S 674 mmHg 89%
    11:00 +4°C° 0 mm 2 m/S 674 mmHg 89%
    12:00 +4°C° 0 mm 2 m/S 674 mmHg 90%
    13:00 +5°C° 0 mm 2 m/S 674 mmHg 91%
    14:00 +4°C° 0 mm 2 m/S 674 mmHg 92%
    15:00 +4°C° 0 mm 2 m/S 674 mmHg 93%
    16:00 +3°C° 0 mm 2 m/S 674 mmHg 94%
    17:00 +2°C° 0,1 mm 2 m/S 674 mmHg 95%
    18:00 +2°C° 0,1 mm 2 m/S 675 mmHg 95%
    19:00 +1°C° 0,1 mm 2 m/S 675 mmHg 95%
    20:00 +1°C° 0,8 mm 2 m/S 675 mmHg 96%
    21:00 +1°C° 0,8 mm 2 m/S 676 mmHg 96%
    22:00 +1°C° 0,8 mm 2 m/S 676 mmHg 96%
    23:00 +1°C° 1,6 mm 2 m/S 677 mmHg 97%

    27 Januar, Samstag

    Zeit Temperatur Niederschläge Wind Luftdruck Luftfeuchtigkeit
    00:00 +1°C° 1,6 mm 2 m/S 677 mmHg 97%
    01:00 +1°C° 1,6 mm 2 m/S 678 mmHg 97%
    02:00 +2°C° 1,1 mm 1 m/S 678 mmHg 97%
    03:00 +1°C° 1,1 mm 1 m/S 678 mmHg 97%
    04:00 +1°C° 1,1 mm 1 m/S 678 mmHg 97%
    05:00 +1°C° 0,8 mm 1 m/S 679 mmHg 97%
    06:00 0°C° 0,8 mm 1 m/S 679 mmHg 97%
    07:00 0°C° 0,8 mm 1 m/S 679 mmHg 97%
    08:00 0°C° 0,4 mm 1 m/S 680 mmHg 96%
    09:00 +1°C° 0,4 mm 1 m/S 681 mmHg 95%
    10:00 +1°C° 0,4 mm 1 m/S 681 mmHg 95%
    11:00 +2°C° 0,4 mm 1 m/S 682 mmHg 94%
    12:00 +2°C° 0,4 mm 1 m/S 682 mmHg 93%
    13:00 +3°C° 0,4 mm 1 m/S 682 mmHg 93%
    14:00 +2°C° 0,4 mm 1 m/S 682 mmHg 93%
    15:00 +2°C° 0,4 mm 1 m/S 683 mmHg 93%
    16:00 +2°C° 0,4 mm 1 m/S 683 mmHg 94%
    17:00 +2°C° 0,1 mm 1 m/S 683 mmHg 94%
    18:00 +1°C° 0,1 mm 1 m/S 684 mmHg 95%
    19:00 0°C° 0,1 mm 1 m/S 684 mmHg 96%
    20:00 -1°C° 0,1 mm 0 m/S 684 mmHg 95%
    21:00 -1°C° 0,1 mm 0 m/S 685 mmHg 95%
    22:00 -2°C° 0,1 mm 0 m/S 685 mmHg 95%
    23:00 -2°C° 0 mm 0 m/S 685 mmHg 94%
    Mehr zeigen